This is the latest recevied weather packets stored in our database for station/object EA2KR-10. If no packets are shown the sender has not sent any weather packets the latest 10 day(s).
| Time | Temp. | Humidity | Pressure | Rain* | Wind** | Luminosity | Snow |
|---|---|---|---|---|---|---|---|
| 1788147206 | 20.56° C | 44% | 1032.3 hPa | - | - | - | - |
| 1788145406 | 21.11° C | 43% | 1032.3 hPa | - | - | - | - |
| 1788143605 | 21.11° C | 42% | 1032.2 hPa | - | - | - | - |
| 1788141805 | 21.67° C | 42% | 1032.2 hPa | - | - | - | - |
| 1788140005 | 21.67° C | 42% | 1032.1 hPa | - | - | - | - |
| 1788138205 | 22.22° C | 42% | 1032.2 hPa | - | - | - | - |
| 1788136405 | 22.78° C | 42% | 1032.4 hPa | - | - | - | - |
| 1788134605 | 22.78° C | 41% | 1032.4 hPa | - | - | - | - |
| 1788132805 | 23.33° C | 40% | 1032.6 hPa | - | - | - | - |
| 1788131005 | 23.89° C | 40% | 1032.6 hPa | - | - | - | - |
| 1788129205 | 23.89° C | 39% | 1032.4 hPa | - | - | - | - |
| 1788127405 | 24.44° C | 39% | 1032.2 hPa | - | - | - | - |
| 1788125604 | 25° C | 38% | 1032.1 hPa | - | - | - | - |
| 1788123804 | 26.11° C | 37% | 1031.9 hPa | - | - | - | - |
| 1788122004 | 26.67° C | 35% | 1031.5 hPa | - | - | - | - |
| 1788120204 | 27.78° C | 33% | 1031.1 hPa | - | - | - | - |
| 1788118404 | 29.44° C | 32% | 1030.8 hPa | - | - | - | - |
| 1788116604 | 31.11° C | 31% | 1030.5 hPa | - | - | - | - |
| 1788114807 | 32.78° C | 28% | 1030.1 hPa | - | - | - | - |
| 1788113007 | 34.44° C | 26% | 1029.9 hPa | - | - | - | - |
| 1788111207 | 36.11° C | 26% | 1029.7 hPa | - | - | - | - |
| 1788109407 | 37.78° C | 25% | 1029.4 hPa | - | - | - | - |
| 1788107606 | 39.44° C | 24% | 1029.1 hPa | - | - | - | - |
| 1788105806 | 40.56° C | 22% | 1028.9 hPa | - | - | - | - |
| 1788104006 | 41.67° C | 21% | 1028.6 hPa | - | - | - | - |
* Rain since midnight (hover to see other rain measurements)
** Current wind speed in m/s (hover to see current wind gust speed)